Regional Weather Roundup
Issued by NWS Sioux Falls, SD

Home | Current Version | Previous Version | Graphics & Text | Print | Product List | Glossary On
Versions: 1 2 3 4 5 6 7 8 9 10 11 12 13 14 15 16 17 18 19 20 21 22 23 24 25 26 27 28 29 30 31 32 33 34 35 36 37 38 39 40 41 42 43 44 45 46 47 48 49 50
000
ASUS43 KFSD 272110
RWRFSD

WEATHER ROUNDUP FOR SE SOUTH DAKOTA/SW MINNESOTA/NW IOWA
NATIONAL WEATHER SERVICE SIOUX FALLS SD
400 PM CDT WED AUG 27 2014

NOTE: "FAIR" INDICATES FEW OR NO CLOUDS BELOW 12,000 FEET WITH NO
SIGNIFICANT WEATHER AND OR OBSTRUCTIONS TO VISIBILITY.


SDZ038>040-050-052>070-272200-
SOUTHEAST SOUTH DAKOTA

CITY           SKY/WX    TMP DP  RH WIND       PRES   REMARKS
CHAMBERLAIN    PTSUNNY   76  66  71 SE13G18   30.07F
HURON          PTSUNNY   78  64  61 SE9       30.07F
MADISON        FAIR      75  64  69 S10G20    30.13S
MITCHELL       CLOUDY    76  66  71 S15       30.09F
SIOUX FALLS    PTSUNNY   73  64  73 SE12      30.12S
WINNER         MOCLDY    77  66  68 SE16      30.06F
YANKTON        CLOUDY    68  64  88 SE8       30.11S
$$

MNZ071-072-080-081-089-090-097-098-272200-
SOUTHWEST MINNESOTA

CITY           SKY/WX    TMP DP  RH WIND       PRES   REMARKS
JACKSON        CLOUDY    73  59  60 SE7       30.15F
LUVERNE        PTSUNNY   73  63  68 SE9       30.14R
MARSHALL       NOT AVBL
MONTEVIDEO     PTSUNNY   77  61  57 SE10      30.14F
PIPESTONE      MOSUNNY   73  63  68 SE8       30.13F
TRACY          MOSUNNY   75  61  60 SE5       30.14F
WINDOM         PTSUNNY   73  59  60 E9        30.15F
$$

IAZ001>003-012>014-020>022-031-032-NEZ013-014-SDZ071-272200-
NORTHWEST IOWA

CITY           SKY/WX    TMP DP  RH WIND       PRES   REMARKS
DENISON        CLOUDY    72  70  94 VRB3      30.10S
ESTHERVILLE    CLOUDY    71  62  73 E9        30.15F
LE MARS        CLOUDY    73  68  83 S10       30.12F
ORANGE CITY    CLOUDY    73  64  73 S8        30.13S
SHELDON        CLOUDY    72  64  78 SE10      30.13R
SIOUX CITY     CLOUDY    71  68  90 SE6       30.10F
SPENCER        CLOUDY    74  63  68 E12       30.14F
STORM LAKE     CLOUDY    70  70 100 SE9       30.14F
$$

ABBREVIATIONS USED IN REMARKS
   TC - TEMPERATURE IN CELSIUS
  WCI - WIND CHILL INDEX
   HX - HEAT INDEX
  VSB - VISIBILITY




USA.gov is the U.S. government's official web portal to all federal, state and local government web resources and services.